Regional Weather Roundup
Issued by NWS Wakefield, VA

Home | Current Version | Previous Version | Graphics & Text | Print | Product List | Glossary On
Versions: 1 2 3 4 5 6 7 8 9 10 11 12 13 14 15 16 17 18 19 20 21 22 23 24 25 26 27 28 29 30 31 32 33 34 35 36 37 38 39 40 41 42 43 44 45 46 47 48 49 50
000
ASUS41 KAKQ 131315
RWRAKQ

REGIONAL WEATHER ROUNDUP
NATIONAL WEATHER SERVICE WAKEFIELD VA
800 AM EST SAT FEB 13 2016

Note: "fair" indicates few or no clouds below 12,000 feet with no
significant weather and/or obstructions to visibility. * = Denotes
station may not report precipitation (e.g., rain,snow,etc.),
thunder or fog.

VAZ042-051-052>054-056-131400-
NORTHERN VIRGINIA

CITY           SKY/WX    TMP DP  RH WIND       PRES   REMARKS
WASH NATIONAL  CLOUDY    21  12  68 NW15G32   30.22R WCI   8
DULLES         MOCLDY    20   4  50 NW13      30.20R WCI   7
FORT BELVOIR   FAIR      21   2  44 NW18G26   30.21R WCI   6
QUANTICO       FAIR      23   2  40 NW13G28   30.24R WCI  11
FREDERICKSBRG* FAIR      22   2  42 NW20G30   30.21R WCI   7
STAFFORD*      FAIR      21  -1  37 NW15G25   30.25R WCI   8
WARRENTON      MOCLDY    23   5  46 NW7G18    30.21R
CULPEPER*      MOCLDY    19   3  48 NW10      30.22R WCI   8
MANASSAS*      NOT AVBL
LEESBURG*      MOCLDY    19  14  79 NW16G24   30.20R WCI   5
WINCHESTER     CLOUDY    19   5  53 NW16G28   30.18R WCI   5
FRONT ROYAL*   CLOUDY    18   5  57 NW12G22   30.17R WCI   5
LURAY*         FAIR      18   0  45 W5        30.18R
$$

VAZ048-049-060>072-079>083-131400-
CENTRAL AND SOUTH CENTRAL VIRGINIA

CITY           SKY/WX    TMP DP  RH WIND       PRES   REMARKS
RICHMOND       FAIR      24   0  35 NW12      30.22R WCI  13
CHESTERFIELD*  FAIR      25  -6  26 NW15      30.23R WCI  12
PETERSBURG*    FAIR      26  -7  22 NW15G23   30.22R WCI  14
HANOVER        FAIR      23  -1  35 NW15G21   30.23R WCI  10
TAPPAHANNOCK*  FAIR      24   2  39 E12       30.21R WCI  13
QUINTON*       FAIR      24  -2  32 NW15G22   30.21R WCI  11
CHARLOTTSVILLE FAIR      20  -5  33 NW9G20    30.21R
GORDONSVILLE*  FAIR      21  -1  37 NW8       30.22R
ORANGE*        CLOUDY    23   0  36 W12       30.23R WCI  12
LOUISA*        FAIR      21  -2  35 W9G17     30.20R
BUMPASS*       FAIR      21  -1  37 NW5       30.21R
FARMVILLE*     FAIR      24  -3  29 NW6       30.22R
CREWE*         PTSUNNY   24  -1  34 N3        30.22R
FORT PICKETT*  FAIR      24  -2  32 NW9       30.21R
CHASE CITY*    FAIR      23  -3  32 NW5       30.24R
CLARKSVILLE*   FAIR      25   0  33 NW16G23   30.24R WCI  12
SOUTH HILL*    FAIR      24   0  35 NW7       30.28R
LAWRENCEVILLE* FAIR      26  -1  32 NW8G17    30.21R
EMPORIA*       FAIR      27   3  36 W10G21    30.24R WCI  17
$$

VAZ088>098-131400-
SOUTHEAST VIRGINIA

CITY           SKY/WX    TMP DP  RH WIND       PRES   REMARKS
NORFOLK        PTSUNNY   27  15  61 N14G28    30.18R WCI  16
VIRGINIA BEACH FAIR      30  16  56 NW24G33   30.17R WCI  16
NORFOLK NAVAL  FAIR      27  13  55 NW18      30.20R WCI  14
WEST POINT*    FAIR      25   2  37 NW10G21   30.22R WCI  14
SALUDA*        FAIR      25   2  37 NW15G25   30.19R WCI  13
NEWPORT NEWS   FAIR      26   6  42 NW16G23   30.19R WCI  14
LANGLEY AFB    PTSUNNY   26  15  64 NW16G24   30.17R WCI  13
FORT EUSTIS    FAIR      26   7  43 NW14G30   30.18R WCI  15
WILLIAMSBURG*  FAIR      27   7  43 NW10G24   30.20R WCI  17
HR EXEC AP*    FAIR      27  19  74 NW13G24   30.21R WCI  16
FRANKLIN*      FAIR      25  14  63 NW9       30.21R
US460-WAKEFLD  FAIR      26   5  40 NW8G21    30.21R
$$

VAZ020-022-025-037-045-131400-
WEST CENTRAL AND SOUTHWEST VIRGINIA

CITY           SKY/WX    TMP DP  RH WIND       PRES   REMARKS
STAUNTON*      FAIR      19  -4  35 NW22G36   30.18R WCI   3
WAYNESBORO*    FAIR      15  -9  34 NW18G26   30.14R WCI  -2
HOT SPRINGS VA CLOUDY     4  -4  68 W20G32    29.93R WCI -16
LYNCHBURG      FAIR      19  -3  38 NW12G18   30.22R WCI   7
DANVILLE       FAIR      25   1  35 NW8       30.26R
SOUTH BOSTON*  FAIR      24  -3  31 NW15G21   30.26R WCI  11
MARTINSVILLE   CLOUDY    20   2  45 NW15G24   30.27R WCI   6
ROANOKE        FAIR      17  -3  41 W20G33    30.25R WCI   1
BLACKSBURG     CLOUDY    14   4  64 NW12G24   30.20R WCI   0
DUBLIN*        CLOUDY    16   4  61 NW17G25   30.19R WCI   0
MARION*        CLOUDY    14   5  66 W24G35    30.18R WCI  -5
HILLSVILLE*    MOCLDY    13   2  62 NW28G40   30.07R WCI  -8
RICHLANDS*     CLOUDY    10   3  71 NW8G17    30.22R
WISE*          LGT SNOW  14   7  73 N7        30.25R VSB 1
ABINGDON*      CLOUDY    18   7  62 N10       30.27R WCI   6
$$

MDZ021>025-VAZ099-100-131400-
SOUTHERN MARYLAND AND THE DELMARVA PENINSULA

CITY           SKY/WX    TMP DP  RH WIND       PRES   REMARKS
PATUXENT RIVER MOSUNNY   23   4  44 NW20G28   30.18R WCI   8
BAY BRIDGE APT   N/A     23   5  46 NW22G28   30.17R WCI   8
LEONARDTOWN    SUNNY     23   3  42 MISG        N/A
DOVER          SUNNY     23   6  49 NW25G37   30.09R WCI   6
GEORGETOWN     SUNNY     23   6  48 NW8G20    30.12R
EASTON         MOSUNNY   25   7  46 NW21G30   30.18R WCI  10
CAMBRIDGE      MOSUNNY   23   5  46 NW16G30   30.15R WCI  10
SALISBURY      SUNNY     24   7  48 W12G23    30.13R WCI  13
OCEAN CITY     SUNNY     24   8  50 NW16G29   30.11R WCI  11
WALLOPS ISLAND PTSUNNY   25  12  58 NW15G22   30.14R WCI  13
ACCOMACK*      FAIR      27   3  36 NW23G33   30.15R WCI  12
$$

NCZ012>017-030>032-131400-
NORTH CENTRAL AND EASTERN NORTH CAROLINA

CITY           SKY/WX    TMP DP  RH WIND       PRES   REMARKS
ROANOKE RAPIDS FAIR      28   5  37 NW14      30.22R WCI  17
RALEIGH        PTCLDY    29   8  41 VRB5      30.24R
ELIZABETH CITY MOSUNNY   27  20  75 NW18G26   30.18R WCI  14
AHOSKIE*       NOT AVBL
EDENTON*       MOSUNNY   28  26  91 N10       30.18R WCI  19
CURRITUCK*     NOT AVBL
KILL DEVIL HLS NOT AVBL
MANTEO         NOT AVBL
CAPE HATTERAS  SUNNY     33  25  72 NW9       30.15R
TARBORO*       FAIR      31   9  40 NW12G26   30.23R WCI  21
GOLDSBORO      SUNNY     32  21  64 NW9       30.19R
WASHINGTON     SUNNY     28  19  67 NW3       30.19R
GREENVILLE     SUNNY     30  21  69 NW5       30.20R
NEW BERN       SUNNY     31  23  72 NW8       30.21R
WILMINGTON     SUNNY     32  28  85 W3        30.22R FOG
$$

VAZ048-131400-
ELSEWHERE

CITY           SKY/WX    TMP DP  RH WIND       PRES   REMARKS
HARRISBURG PA  PTCLDY    17   2  51 NW20G30   30.12R WCI   1
BALTIMORE      PTCLDY    20   1  43 NW10G23   30.17R WCI   9
ANNAPOLIS      CLEAR     23   5  46 W17G29    30.17R WCI   9
ANDREWS AFB    LGT SNOW  18  14  86 NW16      30.17  WCI   3
PHILADELPHIA   MOSUNNY   22   1  40 NW22G32   30.09R WCI   6
HENDERSON NC   CLEAR     25  -1  31 N13G18    30.24R WCI  14
GREENSBORO     PTCLDY    26   4  38 N14G22    30.22R WCI  14
ROCKY MOUNT    SUNNY     29  11  47 NW16G28   30.22R WCI  17
$$

VAZ100-131400-
MARINE

STATION/POSITION TIME  TEMP    WIND        PRES    WAVE   SWELL
                       AIR SEA DIR/SP/G            HT/PER HT/PER
                 (UTC) (F)     (DEG/KT/KT) (MB)    (FT/S) (FT/S)
BRANDYWINE LGT   1200   24     320/ 30/ 43 1017.1R
CAPE MAY NJ      1200   25 36  310/ 19/ 30 1017.1R
LEWES DE         1200   25 38  310/ 22/ 28 1018.0R
15NM E FENWICK I 1150   27 43              1016.7    4/ 4
OCEAN-CITY-INLET 1200   24 37  330/ 15/ 21 1018.0R
WACHAPREAGUE VA  1200   25 34  290/  6/ 15 1019.8R
THOMAS POINT MD  1200   22 36  310/ 23/ 26 1020.6R
GOOSES REEF MD   1300   24 37  310/ 23/ 27 1022.5R   3/ 3
COVE POINT MD    1200   22     330/ 13/ 27 1021.4R
SOLOMONS ISLAND  1200   24 38  300/ 12/ 16   N/A
BISHOPS HEAD MD  1200   25 30  310/ 24/ 32 1019.6R
PINEY POINT MD   1200          330/ 29/ 34   N/A
POTOMAC MD       1300   26 38  320/ 25/ 31 1020.8R   3/ 3
CAMBRIDGE MD     1200   24 36  300/ 22/ 28 1019.3R
LEWISETTA VA     1200   25 36  320/ 21/ 33 1021.0R
RAPPAHANNOCK LGT 1200          310/ 34/ 39 1020.3R
STINGRAY PT      1300   27 39  330/ 23/ 29 1021.8R   3/ 3
YORK RVR RNG VA  1218   27     330/ 24/ 30 1020.7R
YORKTOWN VA      1200   27 39  340/ 20/ 22 1021.1R
JAMESTOWN VA     1300   26 40  310/ 19/ 23   N/A
DOMINION TERM VA 1200   28     350/ 14/ 24 1020.9R
KIPTOPEKE VA     1200      39  330/ 25/ 31   N/A
CHES BAY BRIDGE  1218   28 40  310/ 29/ 33 1020.8R
CAPE HENRY VA    1200   29     320/ 29/ 33   N/A
CHESAPEAKE LGHT  1200   30     340/ 29/ 31 1019.7R
WILLOUBY STN VA  1200   28     320/ 17/ 22 1021.7R
1ST LANDING BUOY 1300      40                N/A     3/ 3
OFFSHORE WE BUOY 1251      44                N/A     6/ 5   2/12
64NM E OF VA BCH 1150   35 48  320/ 23/ 29 1017.1    6/ 6   2/11
DUCK PIER NC     1200   28     300/ 11/ 14 1019.2R
44100 DUCK FRF   1254      45                N/A     4/ 5   2/11
44056 DUCK FRF   1211      42                N/A     2/10
OREGON INLET NC  1200   30 40  300/  9/ 12 1019.7R
HATTERAS NC      1200   33 44  330/ 17/ 21 1019.5R
DIAMOND SHLS NC  1150   38 71  340/ 19/ 25 1019.2    5/ 8   3/10
$$



USA.gov is the U.S. government's official web portal to all federal, state and local government web resources and services.